Kansas Department of Transportation
RWIS(Road and Runway Information System) Map and Weather Data





Station
Surface
Air
Wind
Site IDSensor TypeLocationTemperature (°F)Temperature (°F)Humidity (%)Speed (mi/h)Gusts (mi/h)DirectionTime
123002AtmosphericBonner Springs 234847EJan 20 2019 12:55PM
123002ApproachBonner Springs39     Jan 20 2019 12:55PM
123002DeckBonner Springs30     Jan 20 2019 12:55PM
123014AtmosphericBull Creek 273426EJan 20 2019 12:55PM
123014DeckBull Creek37     Jan 20 2019 12:55PM
123014DepartureBull Creek41     Jan 20 2019 12:55PM
123015AtmosphericLeavenworth 195969SEJan 20 2019 12:55PM
123015DeckLeavenworthUnavailable     Jan 20 2019 12:55PM
123015DepartureLeavenworth30     Jan 20 2019 12:55PM
123020AtmosphericMayetta 214257ESEJan 20 2019 12:55PM
123020RoadwayMayettaUnavailable     Jan 20 2019 12:55PM
123020DeckMayettaUnavailable     Jan 20 2019 12:55PM
505000AtmosphericKTA 1 3458710SSEJan 20 2019 12:50PM
505000ApproachKTA 141     Jan 20 2019 12:50PM
505000DeckKTA 145     Jan 20 2019 12:50PM
505001AtmosphericKTA 2 3272912SJan 20 2019 12:50PM
505001ApproachKTA 245     Jan 20 2019 12:50PM
505001DeckKTA 246     Jan 20 2019 12:50PM
505002AtmosphericKTA 3 328349SWJan 20 2019 12:50PM
505002ApproachKTA 346     Jan 20 2019 12:50PM
505002DeckKTA 343     Jan 20 2019 12:50PM
505003AtmosphericKTA 4 3059713NJan 20 2019 12:50PM
505003ApproachKTA 445     Jan 20 2019 12:50PM
505003DeckKTA 441     Jan 20 2019 12:50PM
505004AtmosphericKTA 5 28991114SWJan 20 2019 12:50PM
505004RoadwayKTA 5Unavailable     Jan 20 2019 12:50PM
505004RoadwayKTA 5Unavailable     Jan 20 2019 12:50PM
505005AtmosphericKTA 6 275439SSEJan 20 2019 12:50PM
505005Approach KTA 648     Jan 20 2019 12:50PM
505005DeckKTA 639     Jan 20 2019 12:50PM
505006AtmosphericKTA 7 255868SJan 20 2019 12:50PM
505006ApproachKTA 7Unavailable     Jan 20 2019 12:50PM
505006DeckKTA 7Unavailable     Jan 20 2019 12:50PM
505007AtmosphericKTA 8 274569SSEJan 20 2019 12:50PM
505007ApproachKTA 837     Jan 20 2019 12:50PM
505007DeckKTA 832     Jan 20 2019 12:50PM
505008AtmosphericKTA 9 274448SEJan 20 2019 12:50PM
505008ApproachKTA 939     Jan 20 2019 12:50PM
505008DeckKTA 934     Jan 20 2019 12:50PM
505009AtmosphericKTA 10 215200NJan 20 2019 12:50PM
505009ApproachKTA 1034     Jan 20 2019 12:50PM
505009DeckKTA 1032     Jan 20 2019 12:50PM
505010AtmosphericWebb 3442912SEJan 20 2019 12:55PM
505010DeckWebb43     Jan 20 2019 12:55PM
505010NullWebb46     Jan 20 2019 12:55PM
505014AtmosphericI-135 3269814SSWJan 20 2019 1:00PM
505014ApproachI-13541     Jan 20 2019 1:00PM
505014DeckI-135Unavailable     Jan 20 2019 1:00PM
540000AtmosphericBlue Rapids 255716EJan 20 2019 12:55PM
540000DeckBlue Rapids28     Jan 20 2019 12:55PM
540000DepartureBlue Rapids39     Jan 20 2019 12:55PM
540001AtmosphericSabetha 186368EJan 20 2019 12:55PM
540001ApproachSabetha43     Jan 20 2019 12:55PM
540001DeckSabetha37     Jan 20 2019 12:55PM
540002AtmosphericWestgate 274146SJan 20 2019 12:55PM
540002DeckWestgate37     Jan 20 2019 12:55PM
540002DepartureWestgate36     Jan 20 2019 12:55PM
540003AtmosphericEmporia 2768811SWJan 20 2019 12:55PM
540003ApproachEmporia45     Jan 20 2019 12:55PM
540003DeckEmporia41     Jan 20 2019 12:55PM
540005AtmosphericLawrence 2549511ENEJan 20 2019 12:55PM
540005ApproachLawrenceUnavailable     Jan 20 2019 12:55PM
540005DeckLawrenceUnavailable     Jan 20 2019 12:55PM
540006AtmosphericTroy 1675710NEJan 20 2019 12:55PM
540006DeckTroy25     Jan 20 2019 12:55PM
540006DepartureTroy30     Jan 20 2019 12:55PM
540007AtmosphericManhattan 276612EJan 20 2019 12:55PM
540007DepartureManhattan37     Jan 20 2019 12:55PM
540007DeckManhattan45     Jan 20 2019 12:55PM
541000AtmosphericElkhart 593367SSEJan 20 2019 12:55PM
541000ApproachElkhart73     Jan 20 2019 12:55PM
541000DeckElkhart68     Jan 20 2019 12:55PM
541000DeckElkhart68     Jan 20 2019 12:55PM
541001AtmosphericSyracuse 485258WNWJan 20 2019 12:55PM
541001Out of Service for WinterSyracuse57     Jan 20 2019 12:55PM
541001DeckSyracuse54     Jan 20 2019 12:55PM
541002AtmosphericLiberal 465616SSWJan 20 2019 12:55PM
541002ApproachLiberalUnavailable     Jan 20 2019 12:55PM
541002DeckLiberalUnavailable     Jan 20 2019 12:55PM
541003AtmosphericFord 436027SSWJan 20 2019 12:55PM
541003DeckFord48     Jan 20 2019 12:55PM
541003DepartureFord52     Jan 20 2019 12:55PM
541004AtmosphericScott 454500NJan 20 2019 12:55PM
541004DepartureScottUnavailable     Jan 20 2019 12:55PM
541005AtmosphericNess 436436WNWJan 20 2019 12:55PM
541005DeckNess52     Jan 20 2019 12:55PM
541005DepartureNess57     Jan 20 2019 12:55PM
541007AtmosphericGarden City 486147WSWJan 20 2019 12:55PM
541007ApproachGarden City48     Jan 20 2019 12:55PM
541007DeckGarden City55     Jan 20 2019 12:55PM
543000AtmosphericJunction City 326536NNEJan 20 2019 12:55PM
543000ApproachJunction City43     Jan 20 2019 12:55PM
543000DeckJunction City41     Jan 20 2019 12:55PM
543002AtmosphericMcPherson 367500SJan 20 2019 12:55PM
543002ApproachMcPherson48     Jan 20 2019 12:55PM
543002DeckMcPherson46     Jan 20 2019 12:55PM
543003AtmosphericSalina 3745711NJan 20 2019 12:55PM
543003DepartureSalina48     Jan 20 2019 12:55PM
543003RoadwaySalinaUnavailable     Jan 20 2019 12:55PM
543004AtmosphericConcordia 327548SJan 20 2019 12:55PM
543004ApproachConcordiaUnavailable     Jan 20 2019 12:55PM
543004DeckConcordia41     Jan 20 2019 12:55PM
543005AtmosphericPeabody 3064812SSEJan 20 2019 12:55PM
543005ApproachPeabody46     Jan 20 2019 12:55PM
543005DeckPeabodyUnavailable     Jan 20 2019 12:55PM
560000AtmosphericEdson 731367NEJan 20 2019 12:55PM
560000RoadwayEdson64     Jan 20 2019 12:55PM
560000RoadwayEdson64     Jan 20 2019 12:55PM
560001AtmosphericOakley 524646NWJan 20 2019 12:55PM
560001ApproachOakley63     Jan 20 2019 12:55PM
560001DeckOakley64     Jan 20 2019 12:55PM
560002AtmosphericAtwood 524469NNWJan 20 2019 12:55PM
560002ApproachAtwood50     Jan 20 2019 12:55PM
560002DeckAtwood55     Jan 20 2019 12:55PM
560003AtmosphericJennings 505646NEJan 20 2019 12:55PM
560003ApproachJennings64     Jan 20 2019 12:55PM
560003DeckJennings57     Jan 20 2019 12:55PM
560003DeckJennings57     Jan 20 2019 12:55PM
560004AtmosphericWakeeney 524824NNWJan 20 2019 12:55PM
560004ApproachWakeeney63     Jan 20 2019 12:55PM
560004DeckWakeeney63     Jan 20 2019 12:55PM
560005AtmosphericWalker 397024SWJan 20 2019 12:55PM
560005ApproachWalkerUnavailable     Jan 20 2019 12:55PM
560005DeckWalkerUnavailable     Jan 20 2019 12:55PM
560006AtmosphericBow Creek(Stockton) 365046NNEJan 20 2019 12:55PM
560006ApproachBow Creek(Stockton)52     Jan 20 2019 12:55PM
560006DeckBow Creek(Stockton)52     Jan 20 2019 12:55PM
560007AtmosphericLebanon 326312WNWJan 20 2019 12:55PM
560007ApproachLebanon61     Jan 20 2019 12:55PM
560007DeckLebanon54     Jan 20 2019 12:55PM
560008AtmosphericWallace 611536WJan 20 2019 12:55PM
560008ApproachWallace70     Jan 20 2019 12:55PM
560008DeckWallace64     Jan 20 2019 12:55PM
572000AtmosphericGreat Bend 456579SWJan 20 2019 12:55PM
572000ApproachGreat Bend55     Jan 20 2019 12:55PM
572000DeckGreat Bend55     Jan 20 2019 12:55PM
572001AtmosphericPratt 432314SSWJan 20 2019 12:55PM
572001ApproachPratt57     Jan 20 2019 12:55PM
572001DeckPratt54     Jan 20 2019 12:55PM
572002AtmosphericAnthony 3770611SSWJan 20 2019 12:55PM
572002ApproachAnthony57     Jan 20 2019 12:55PM
572002DeckAnthonyUnavailable     Jan 20 2019 12:55PM
573000AtmosphericEureka 3264411SSWJan 20 2019 12:55PM
573000DeckEureka41     Jan 20 2019 12:55PM
573000DepartureEureka37     Jan 20 2019 12:55PM
573001AtmosphericGarnett 285046SWJan 20 2019 12:55PM
573001ApproachGarnett43     Jan 20 2019 12:55PM
573001DeckGarnett39     Jan 20 2019 12:55PM
573002AtmosphericCaney 323349ESEJan 20 2019 12:50PM
573002RoadwayCaney50     Jan 20 2019 12:50PM
573003AtmosphericChetopa 325849SJan 20 2019 12:55PM
573003DeckChetopa48     Jan 20 2019 12:55PM
573003DeckChetopa48     Jan 20 2019 12:55PM
573003DepartureChetopa54     Jan 20 2019 12:55PM
573004AtmosphericChanute 3061911SSWJan 20 2019 12:55PM
573004ApproachChanute50     Jan 20 2019 12:55PM
573004DeckChanute46     Jan 20 2019 12:55PM